Weather History for San Sebastian, Spain

Change the Weather History Date:

Tuesday, March 12, 2013

  Actual Average Record
Temperature  
Mean Temperature 46 °F -  
Max Temperature 50 °F 59 °F 75 °F (2002)
Min Temperature 41 °F 46 °F 32 °F (2005)
Degree Days  
Heating Degree Days 20    
Moisture  
Dew Point 38 °F    
Average Humidity 71    
Maximum Humidity 87    
Minimum Humidity 62    
Precipitation  
Precipitation 0.00 in - - ()
Sea Level Pressure  
Sea Level Pressure 29.62 in    
Wind  
Wind Speed 7 mph ()    
Max Wind Speed 14 mph    
Max Gust Speed 26 mph    
Visibility 5.7 miles    
Events Rain    
Averages and records for this station are not official NWS values.
T = Trace of Precipitation, MM = Missing Value Source: Averaged Metar Reports

Daily Weather History Graph

Daily Weather History Graph

Search for Another Location

Airport:

Trip Planner

Search our weather history database for the weather conditions in past years. The results will help you decide how hot, cold, wet, or windy it might be!

Date:

Astronomy

Mar. 12, 2013 Rise Set
Actual Time 7:24 AM CET 7:09 PM CET
Civil Twilight 6:56 AM CET 7:38 PM CET
Nautical Twilight 6:23 AM CET 8:11 PM CET
Astronomical Twilight 5:49 AM CET 8:45 PM CET
Moon 7:20 AM CET (3/12) 8:12 PM CET (3/12)
Length of Visible Light 12h 42m
Length of Day
11h 45m
New Moon, 0% of the Moon is Illuminated
Mar 12
New Moon
Mar 19
First Quarter
Mar 27
Full
Apr 3
Last Quarter
Apr 10
New

Hourly Weather History & Observations

Time (CET) Temp. Windchill Dew Point Humidity Pressure Visibility Wind Dir Wind Speed Gust Speed Precip Events Conditions
5:30 AM 50.0 °F - 41.0 °F 71% 29.62 in 5.6 mi Variable 8.1 mph - N/A   Mostly Cloudy
6:00 AM 48.2 °F - 39.2 °F 71% 29.62 in 6.2 mi Variable 9.2 mph 26.5 mph N/A   Mostly Cloudy
6:30 AM 48.2 °F - 39.2 °F 71% 29.62 in 6.2 mi West 8.1 mph - N/A   Mostly Cloudy
7:00 AM 48.2 °F - 39.2 °F 71% 29.62 in 6.2 mi Variable 8.1 mph 21.9 mph N/A   Mostly Cloudy
7:30 AM 48.2 °F - 37.4 °F 66% 29.65 in 6.2 mi Variable 8.1 mph 19.6 mph N/A   Mostly Cloudy
8:00 AM 48.2 °F - 37.4 °F 66% 29.65 in 6.2 mi Variable 6.9 mph 18.4 mph N/A   Mostly Cloudy
8:30 AM 48.2 °F - 35.6 °F 62% 29.65 in 6.2 mi Variable 5.8 mph - N/A   Mostly Cloudy
9:00 AM 48.2 °F - 37.4 °F 66% 29.68 in 6.2 mi Variable 4.6 mph - N/A   Mostly Cloudy
9:30 AM 48.2 °F - 35.6 °F 62% 29.68 in 6.2 mi WSW 6.9 mph - N/A   Mostly Cloudy
10:00 AM 48.2 °F - 37.4 °F 66% 29.68 in 6.2 mi Variable 2.3 mph - N/A Rain Light Rain
10:30 AM 46.4 °F 42.4 °F 41.0 °F 81% 29.68 in 6.2 mi SSW 8.1 mph - N/A Rain Light Rain
11:00 AM 46.4 °F 41.9 °F 41.0 °F 81% 29.68 in 6.2 mi SSW 9.2 mph - N/A   Mostly Cloudy
11:30 AM 48.2 °F - 41.0 °F 76% 29.68 in 6.2 mi SSW 8.1 mph - N/A   Mostly Cloudy
12:00 PM 48.2 °F - 39.2 °F 71% 29.68 in 6.2 mi South 5.8 mph - N/A   Mostly Cloudy
12:30 PM 48.2 °F - 39.2 °F 71% 29.65 in 6.2 mi SSE 4.6 mph - N/A   Mostly Cloudy
1:00 PM 50.0 °F - 37.4 °F 62% 29.65 in 6.2 mi Variable 2.3 mph - N/A   Mostly Cloudy
1:30 PM 48.2 °F - 39.2 °F 71% 29.65 in 6.2 mi Variable 2.3 mph - N/A   Mostly Cloudy
2:00 PM 50.0 °F - 39.2 °F 66% 29.62 in 6.2 mi North 3.5 mph - N/A   Mostly Cloudy
2:30 PM 48.2 °F - 37.4 °F 66% 29.62 in 6.2 mi North 4.6 mph - N/A   Mostly Cloudy
3:00 PM 48.2 °F - 35.6 °F 62% 29.59 in 6.2 mi NNE 5.8 mph - N/A   Mostly Cloudy
3:30 PM 48.2 °F - 37.4 °F 66% 29.59 in 6.2 mi North 5.8 mph - N/A   Mostly Cloudy
4:30 PM 48.2 °F - 37.4 °F 66% 29.59 in 6.2 mi NNE 9.2 mph - N/A   Mostly Cloudy
5:00 PM 48.2 °F - 39.2 °F 71% 29.56 in 6.2 mi NNE 10.4 mph - N/A   Mostly Cloudy
5:30 PM 48.2 °F - 37.4 °F 66% 29.56 in 6.2 mi NNE 12.7 mph - N/A   Mostly Cloudy
6:00 PM 48.2 °F - 37.4 °F 66% 29.56 in 6.2 mi NNE 11.5 mph - N/A   Overcast
6:30 PM 46.4 °F 40.7 °F 39.2 °F 76% 29.53 in 6.2 mi NNE 12.7 mph - N/A   Mostly Cloudy
7:00 PM 46.4 °F 41.5 °F 39.2 °F 76% 29.56 in 5.6 mi NNE 10.4 mph - N/A Rain Light Rain
7:21 PM 44.6 °F 39.7 °F 39.2 °F 81% 29.59 in 1.7 mi North 9.2 mph - N/A Rain Rain
7:30 PM 44.6 °F 40.7 °F 37.4 °F 76% 29.59 in 1.9 mi NNW 6.9 mph - N/A Rain Rain
8:00 PM 42.8 °F 36.6 °F 37.4 °F 81% 29.62 in 2.5 mi Variable 11.5 mph - N/A Rain Rain
8:30 PM 41.0 °F 34.3 °F 37.4 °F 87% 29.62 in 3.1 mi NNW 11.5 mph - N/A Rain Rain
9:00 PM 42.8 °F 37.5 °F 37.4 °F 81% 29.62 in 5.6 mi North 9.2 mph - N/A Rain Light Rain
9:30 PM 42.8 °F 35.8 °F 37.4 °F 81% 29.62 in 6.2 mi North 13.8 mph - N/A   Mostly Cloudy